Location: Vihti�l�
(61.3833°N, 23.0667°E)
Time: 04:55:30
(UTC+00:00)

Cosmos 2082 Rocket - Pass Details

Date: 29 November 2020
Orbit: 831 x 855 km, 71.0° (Epoch: 22 January)

Event Time Altitude Azimuth Distance (km) Brightness Sun altitude
Exits shadow 04:57:12 17° 316° (NW) 2,048 3.7 -14.1°
Maximum altitude 05:01:45 79° 232° (SW) 873 2.2 -13.6°
Drops below altitude 10° 05:07:28 10° 147° (SSE) 2,484 5.5 -12.9°
Sets 05:09:54 0° 146° (SE) 3,419 6.4 -12.6°
